Database contains data from 2013-07-07 to 2026-09-06.
109 measurements (5-min interval)
| Time | Temp Β°C | Dew Β°C | Humid % | Wind m/s | Gust m/s | Dir Β° | Rain mm | Press. hPa | UV | Solar W/mΒ² |
|---|---|---|---|---|---|---|---|---|---|---|
| 00:00 | 12,1 | 11,0 | 93 | 0,0 | 0,4 | β | 0,00 | 1 012,9 | 0,0 | 0 |
| 00:05 | 12,1 | 11,0 | 93 | 0,0 | 0,9 | β | 0,00 | 1 012,9 | 0,0 | 0 |
| 00:10 | 12,1 | 11,0 | 93 | 0,0 | 0,0 | β | 0,00 | 1 012,9 | 0,0 | 0 |
| 00:15 | 12,0 | 10,9 | 93 | 0,0 | 0,0 | β | 0,00 | 1 013,0 | 0,0 | 0 |
| 00:20 | 12,0 | 10,9 | 93 | 0,0 | 0,0 | β | 0,00 | 1 013,0 | 0,0 | 0 |
| 00:25 | 12,0 | 10,9 | 93 | 0,0 | 0,0 | β | 0,00 | 1 013,0 | 0,0 | 0 |
| 00:30 | 12,0 | 10,9 | 93 | 0,0 | 0,0 | β | 0,00 | 1 013,2 | 0,0 | 0 |
| 00:35 | 12,0 | 10,9 | 93 | 1,3 | 4,0 | 293 | 0,00 | 1 013,2 | 0,0 | 0 |
| 00:40 | 12,0 | 10,9 | 93 | 0,4 | 1,3 | 293 | 0,00 | 1 013,2 | 0,0 | 0 |
| 00:45 | 12,0 | 10,9 | 93 | 0,0 | 1,3 | β | 0,00 | 1 013,4 | 0,0 | 0 |
| 00:50 | 12,0 | 10,9 | 93 | 0,0 | 0,9 | β | 0,00 | 1 013,4 | 0,0 | 0 |
| 00:55 | 11,9 | 10,8 | 93 | 0,4 | 0,9 | 293 | 0,00 | 1 013,4 | 0,0 | 0 |
| 01:00 | 11,9 | 10,8 | 93 | 0,0 | 0,9 | β | 0,00 | 1 013,6 | 0,0 | 0 |
| 01:05 | 11,8 | 10,7 | 93 | 0,4 | 1,3 | 293 | 0,00 | 1 013,6 | 0,0 | 0 |
| 01:10 | 11,8 | 10,7 | 93 | 0,0 | 0,9 | β | 0,00 | 1 013,6 | 0,0 | 0 |
| 01:15 | 11,7 | 10,8 | 94 | 0,0 | 0,4 | β | 0,00 | 1 014,0 | 0,0 | 0 |
| 01:20 | 11,7 | 10,8 | 94 | 0,0 | 0,0 | β | 0,00 | 1 014,0 | 0,0 | 0 |
| 01:25 | 11,7 | 10,7 | 94 | 0,0 | 0,0 | β | 0,00 | 1 014,0 | 0,0 | 0 |
| 01:30 | 11,6 | 10,7 | 94 | 0,0 | 0,0 | β | 0,00 | 1 014,1 | 0,0 | 0 |
| 01:35 | 11,6 | 10,7 | 94 | 0,0 | 0,0 | β | 0,00 | 1 014,1 | 0,0 | 0 |
| 01:40 | 11,7 | 10,7 | 94 | 0,0 | 0,0 | β | 0,25 | 1 014,1 | 0,0 | 0 |
| 01:45 | 11,6 | 10,7 | 94 | 0,0 | 0,0 | β | 0,00 | 1 014,1 | 0,0 | 0 |
| 01:50 | 11,6 | 10,6 | 94 | 0,0 | 0,0 | β | 0,00 | 1 014,1 | 0,0 | 0 |
| 01:55 | 11,6 | 10,7 | 94 | 0,0 | 0,0 | β | 0,00 | 1 014,1 | 0,0 | 0 |
| 02:00 | 11,6 | 10,7 | 94 | 0,0 | 0,0 | β | 0,00 | 1 014,2 | 0,0 | 0 |
| 02:05 | 11,6 | 10,7 | 94 | 0,0 | 0,0 | β | 0,00 | 1 014,2 | 0,0 | 0 |
| 02:10 | 11,5 | 10,6 | 94 | 0,0 | 0,0 | β | 0,00 | 1 014,2 | 0,0 | 0 |
| 02:15 | 11,5 | 10,7 | 95 | 0,4 | 0,9 | 293 | 0,00 | 1 014,5 | 0,0 | 0 |
| 02:20 | 11,5 | 10,7 | 95 | 0,0 | 0,0 | β | 0,00 | 1 014,5 | 0,0 | 0 |
| 02:25 | 11,6 | 10,8 | 95 | 0,0 | 0,0 | β | 0,00 | 1 014,5 | 0,0 | 0 |
| 02:30 | 11,6 | 10,7 | 94 | 0,0 | 0,0 | β | 0,00 | 1 014,6 | 0,0 | 0 |
| 02:35 | 11,6 | 10,8 | 95 | 0,0 | 0,0 | β | 0,00 | 1 014,6 | 0,0 | 0 |
| 02:40 | 11,6 | 10,8 | 95 | 0,0 | 0,0 | β | 0,00 | 1 014,6 | 0,0 | 0 |
| 02:45 | 11,6 | 10,8 | 95 | 0,0 | 0,0 | β | 0,00 | 1 014,6 | 0,0 | 0 |
| 02:50 | 11,6 | 10,8 | 95 | 0,0 | 0,0 | β | 0,25 | 1 014,6 | 0,0 | 0 |
| 02:55 | 11,6 | 10,8 | 95 | 0,0 | 0,0 | β | 1,02 | 1 014,6 | 0,0 | 0 |
| 03:00 | 11,6 | 10,8 | 95 | 0,0 | 0,9 | β | 0,25 | 1 014,6 | 0,0 | 0 |
| 03:05 | 11,6 | 10,8 | 95 | 0,0 | 0,9 | β | 0,25 | 1 014,6 | 0,0 | 0 |
| 03:10 | 11,6 | 10,8 | 95 | 0,4 | 2,2 | 270 | 0,00 | 1 014,6 | 0,0 | 0 |
| 03:15 | 11,6 | 10,8 | 95 | 0,9 | 1,8 | 270 | 0,25 | 1 014,8 | 0,0 | 0 |
| 03:20 | 11,7 | 10,9 | 95 | 0,4 | 1,3 | 270 | 0,00 | 1 014,8 | 0,0 | 0 |
| 03:25 | 11,7 | 10,9 | 95 | 0,0 | 0,0 | β | 0,00 | 1 014,8 | 0,0 | 0 |
| 03:30 | 11,6 | 10,8 | 95 | 0,0 | 0,0 | β | 0,00 | 1 014,9 | 0,0 | 0 |
| 03:35 | 11,6 | 10,8 | 95 | 0,0 | 0,0 | β | 0,00 | 1 014,9 | 0,0 | 0 |
| 03:40 | 11,6 | 10,8 | 95 | 0,0 | 0,4 | β | 0,00 | 1 014,9 | 0,0 | 0 |
| 03:45 | 11,6 | 10,8 | 95 | 0,0 | 0,0 | β | 0,00 | 1 015,1 | 0,0 | 0 |
| 03:50 | 11,6 | 10,8 | 95 | 0,0 | 0,0 | β | 0,00 | 1 015,1 | 0,0 | 0 |
| 03:55 | 11,6 | 10,8 | 95 | 0,0 | 0,0 | β | 0,00 | 1 015,1 | 0,0 | 0 |
| 04:00 | 11,6 | 10,8 | 95 | 0,0 | 0,0 | β | 0,00 | 1 015,1 | 0,0 | 0 |
| 04:05 | 11,6 | 10,8 | 95 | 0,0 | 0,0 | β | 0,00 | 1 015,1 | 0,0 | 0 |
| 04:10 | 11,6 | 10,8 | 95 | 0,0 | 0,0 | β | 0,00 | 1 015,1 | 0,0 | 0 |
| 04:15 | 11,6 | 10,8 | 95 | 0,0 | 0,0 | β | 0,00 | 1 015,1 | 0,0 | 0 |
| 04:20 | 11,6 | 10,8 | 95 | 0,0 | 0,0 | β | 0,00 | 1 015,1 | 0,0 | 0 |
| 04:25 | 11,5 | 10,7 | 95 | 0,0 | 0,0 | β | 0,00 | 1 015,1 | 0,0 | 0 |
| 04:30 | 11,4 | 10,6 | 95 | 0,0 | 0,0 | β | 0,00 | 1 015,1 | 0,0 | 0 |
| 04:35 | 11,3 | 10,6 | 95 | 0,0 | 0,0 | β | 0,00 | 1 015,1 | 0,0 | 0 |
| 04:40 | 11,4 | 10,7 | 95 | 0,0 | 0,0 | β | 0,00 | 1 015,1 | 0,0 | 0 |
| 04:45 | 11,6 | 10,8 | 95 | 0,0 | 0,0 | β | 0,00 | 1 015,3 | 0,0 | 0 |
| 04:50 | 11,5 | 10,7 | 95 | 0,0 | 0,0 | β | 0,00 | 1 015,3 | 0,0 | 0 |
| 04:55 | 11,4 | 10,7 | 95 | 0,4 | 1,3 | 270 | 0,00 | 1 015,3 | 0,0 | 0 |
| 05:00 | 11,4 | 10,7 | 95 | 0,4 | 1,3 | 270 | 0,00 | 1 015,2 | 0,0 | 0 |
| 05:05 | 11,5 | 10,7 | 95 | 0,0 | 0,0 | β | 0,00 | 1 015,2 | 0,0 | 0 |
| 05:10 | 11,6 | 10,8 | 95 | 0,0 | 0,0 | β | 0,00 | 1 015,2 | 0,0 | 0 |
| 05:15 | 11,6 | 10,8 | 95 | 0,0 | 0,0 | β | 0,00 | 1 015,3 | 0,0 | 0 |
| 05:20 | 11,6 | 10,8 | 95 | 0,0 | 0,0 | β | 0,00 | 1 015,3 | 0,0 | 0 |
| 05:25 | 11,6 | 10,8 | 95 | 0,0 | 0,0 | β | 0,00 | 1 015,3 | 0,0 | 0 |
| 05:30 | 11,6 | 10,8 | 95 | 0,0 | 0,0 | β | 0,00 | 1 015,4 | 0,0 | 0 |
| 05:35 | 11,6 | 10,8 | 95 | 0,0 | 0,0 | β | 0,00 | 1 015,4 | 0,0 | 0 |
| 05:40 | 11,6 | 10,8 | 95 | 0,0 | 0,0 | β | 0,00 | 1 015,4 | 0,0 | 0 |
| 05:45 | 11,6 | 10,8 | 95 | 0,0 | 0,0 | β | 0,00 | 1 015,3 | 0,0 | 0 |
| 05:50 | 11,4 | 10,7 | 95 | 0,0 | 0,0 | β | 0,00 | 1 015,3 | 0,0 | 0 |
| 05:55 | 11,4 | 10,6 | 95 | 0,4 | 0,9 | 270 | 0,00 | 1 015,3 | 0,0 | 0 |
| 06:00 | 11,4 | 10,6 | 95 | 0,9 | 1,3 | 270 | 0,00 | 1 015,5 | 0,0 | 0 |
| 06:05 | 11,4 | 10,6 | 95 | 0,0 | 0,4 | β | 0,00 | 1 015,5 | 0,0 | 0 |
| 06:10 | 11,4 | 10,8 | 96 | 0,0 | 0,9 | β | 0,00 | 1 015,5 | 0,0 | 0 |
| 06:15 | 11,3 | 10,6 | 95 | 0,4 | 1,3 | 270 | 0,00 | 1 015,5 | 0,0 | 0 |
| 06:20 | 11,3 | 10,7 | 96 | 0,4 | 1,3 | 270 | 0,00 | 1 015,5 | 0,0 | 0 |
| 06:25 | 11,3 | 10,7 | 96 | 0,0 | 0,9 | β | 0,00 | 1 015,5 | 0,0 | 0 |
| 06:30 | 11,3 | 10,7 | 96 | 0,4 | 1,8 | 270 | 0,00 | 1 015,3 | 0,0 | 0 |
| 06:35 | 11,3 | 10,7 | 96 | 1,3 | 1,8 | 270 | 0,00 | 1 015,3 | 0,0 | 0 |
| 06:40 | 11,3 | 10,7 | 96 | 1,3 | 2,2 | 270 | 0,00 | 1 015,3 | 0,0 | 0 |
| 06:45 | 11,3 | 10,7 | 96 | 0,9 | 1,8 | 270 | 0,00 | 1 015,5 | 0,0 | 0 |
| 06:50 | 11,3 | 10,7 | 96 | 0,4 | 1,3 | 270 | 0,00 | 1 015,5 | 0,0 | 0 |
| 06:55 | 11,3 | 10,7 | 96 | 1,3 | 1,8 | 270 | 0,00 | 1 015,5 | 0,0 | 3 |
| 07:00 | 11,3 | 10,7 | 96 | 0,9 | 1,8 | 270 | 0,00 | 1 015,6 | 0,0 | 5 |
| 07:05 | 11,3 | 10,7 | 96 | 0,9 | 1,3 | 270 | 0,00 | 1 015,6 | 0,0 | 6 |
| 07:10 | 11,4 | 10,8 | 96 | 0,9 | 1,3 | 270 | 0,00 | 1 015,6 | 0,0 | 11 |
| 07:15 | 11,4 | 10,8 | 96 | 0,9 | 1,3 | 270 | 0,00 | 1 015,6 | 0,0 | 13 |
| 07:20 | 11,5 | 10,9 | 96 | 0,9 | 1,3 | 270 | 0,00 | 1 015,6 | 0,0 | 13 |
| 07:25 | 11,5 | 10,9 | 96 | 0,4 | 0,9 | 270 | 0,00 | 1 015,6 | 0,0 | 11 |
| 07:30 | 11,5 | 10,9 | 96 | 0,0 | 0,9 | β | 0,00 | 1 015,7 | 0,0 | 11 |
| 07:35 | 11,6 | 10,9 | 96 | 0,4 | 1,8 | 270 | 0,25 | 1 015,7 | 0,0 | 8 |
| 07:40 | 11,6 | 11,0 | 96 | 0,9 | 3,1 | 270 | 0,00 | 1 015,7 | 0,0 | 7 |
| 07:45 | 11,6 | 10,9 | 96 | 0,4 | 3,1 | 270 | 0,25 | 1 016,0 | 0,0 | 12 |
| 07:50 | 11,5 | 10,9 | 96 | 0,4 | 1,3 | 270 | 0,00 | 1 016,0 | 0,0 | 21 |
| 07:55 | 11,4 | 10,7 | 95 | 0,9 | 2,7 | 315 | 0,00 | 1 016,0 | 0,0 | 31 |
| 08:00 | 11,3 | 10,5 | 95 | 0,9 | 2,2 | 315 | 0,00 | 1 015,8 | 0,0 | 30 |
| 08:05 | 11,2 | 10,6 | 96 | 0,0 | 0,9 | β | 0,00 | 1 015,8 | 0,0 | 28 |
| 08:10 | 11,1 | 10,3 | 95 | 0,4 | 0,9 | 315 | 0,00 | 1 015,8 | 0,0 | 37 |
| 08:15 | 11,1 | 10,5 | 96 | 0,0 | 0,0 | β | 0,00 | 1 016,0 | 0,2 | 60 |
| 08:20 | 11,2 | 10,5 | 95 | 0,0 | 0,0 | β | 0,00 | 1 016,0 | 0,5 | 80 |
| 08:25 | 11,2 | 10,6 | 96 | 0,0 | 0,0 | β | 0,00 | 1 016,0 | 0,5 | 66 |
| 08:30 | 11,2 | 10,6 | 96 | 0,0 | 0,0 | β | 0,00 | 1 016,2 | 0,5 | 75 |
| 08:35 | 11,3 | 10,6 | 95 | 0,0 | 0,0 | β | 0,00 | 1 016,2 | 0,6 | 114 |
| 08:40 | 11,4 | 10,7 | 95 | 0,0 | 0,4 | β | 0,00 | 1 016,2 | 0,6 | 151 |
| 08:45 | 11,8 | 11,0 | 95 | 0,0 | 0,0 | β | 0,00 | 1 016,2 | 0,6 | 194 |
| 08:50 | 11,8 | 11,0 | 95 | 0,0 | 0,0 | β | 0,00 | 1 016,2 | 0,6 | 142 |
| 08:55 | 12,0 | 11,2 | 95 | 0,0 | 0,0 | β | 0,00 | 1 016,2 | 0,7 | 169 |
| 09:00 | 12,2 | 11,4 | 95 | 0,0 | 0,0 | β | 0,00 | 1 016,4 | 0,7 | 232 |